KL1V-13 Weather Reports


Display with metric or nautical units.
time (UTC)temp
F
wind
direction
speed
MPH
gust
MPH
rain 1hr
in
rain 24hr
in
rain mn
in
humidity
%
barometer
mb
20260506114717 35 0.0 0.0 0.00 0.04 0.00 90 1011.9
20260506113756 35 0.0 0.0 0.00 0.04 0.00 90 1011.9
20260506112757 34 0.0 0.0 0.00 0.04 0.00 90 1011.9
20260506111716 35 0.0 0.0 0.00 0.04 0.00 90 1011.9
20260506110717 35 0.0 0.0 0.00 0.04 0.00 90 1011.9
20260506105716 35 0.0 0.0 0.00 0.04 0.00 90 1011.9
20260506104717 35 0.0 0.0 0.00 0.04 0.00 90 1011.9
20260506103716 35 337 1.0 1.0 0.00 0.04 0.00 90 1011.9
20260506102716 34 0.0 0.0 0.00 0.04 0.00 90 1011.9
20260506101717 34 0.0 0.0 0.00 0.04 0.00 90 1011.9
20260506100717 34 0.0 0.0 0.00 0.04 0.00 90 1011.6
20260506095716 34 0.0 0.0 0.00 0.04 0.00 89 1011.6
20260506094716 34 0.0 0.0 0.00 0.04 0.00 89 1011.6
20260506093716 34 0.0 0.0 0.00 0.05 0.00 89 1011.6
20260506092716 34 0.0 0.0 0.00 0.05 0.00 89 1011.9
20260506091717 34 0.0 0.0 0.00 0.06 0.00 89 1011.6
20260506090716 35 337 1.0 1.0 0.00 0.06 0.00 89 1011.6
20260506085716 34 0.0 0.0 0.00 0.06 0.00 89 1011.9
20260506084716 34 337 0.0 1.0 0.00 0.06 0.00 89 1011.6
20260506083716 34 0.0 0.0 0.00 0.06 0.00 89 1011.6
20260506082716 35 0.0 0.0 0.00 0.06 0.00 89 1011.6
20260506081717 35 0.0 0.0 0.00 0.06 0.00 89 1011.6
20260506080717 35 0.0 0.0 0.00 0.06 0.00 89 1011.6
20260506072718 37 0.0 0.0 0.00 0.06 0.06 88 1011.6
20260506071716 37 0.0 0.0 0.00 0.06 0.06 87 1011.2
20260506070717 38 0.0 0.0 0.00 0.06 0.06 87 1011.2
20260506061716 39 12 1.0 2.0 0.00 0.08 0.06 85 1010.9
20260506060717 40 0.0 0.0 0.00 0.08 0.06 84 1010.9
20260506050717 41 315 1.0 3.0 0.00 0.10 0.06 83 1010.6
20260506044717 42 0.0 0.0 0.00 0.10 0.06 81 1010.5
20260506043716 42 0.0 0.0 0.00 0.10 0.06 81 1010.2
20260506042717 43 319 2.0 3.0 0.00 0.10 0.06 80 1010.2
20260506041757 43 320 2.0 4.0 0.00 0.10 0.06 78 1010.2
20260506040757 44 315 2.0 4.0 0.00 0.11 0.06 78 1010.2
20260506035717 44 0.0 0.0 0.00 0.11 0.06 77 1010.2
20260506034717 44 0.0 0.0 0.00 0.11 0.06 77 1010.2
20260506033716 44 315 1.0 3.0 0.00 0.11 0.06 77 1009.9
20260506032716 44 308 3.0 5.0 0.00 0.11 0.06 77 1009.9
20260506031737 45 355 1.0 4.0 0.00 0.11 0.06 77 1009.6
20260506030716 45 315 1.0 3.0 0.00 0.11 0.06 78 1009.5
20260506025716 45 325 3.0 4.0 0.00 0.11 0.06 77 1009.5
20260506024716 45 241 1.0 4.0 0.00 0.11 0.06 77 1009.5
20260506023710 45 112 1.0 4.0 0.00 0.11 0.06 77 1009.5
20260506022731 45 302 1.0 2.0 0.00 0.11 0.06 77 1009.2
20260506021710 45 315 1.0 2.0 0.00 0.11 0.06 75 1009.2
20260506020710 46 0.0 0.0 0.00 0.11 0.06 74 1009.2
20260506015710 46 199 0.0 2.0 0.00 0.11 0.06 75 1009.2
20260506014711 46 127 3.0 4.0 0.00 0.11 0.06 75 1009.2
20260506013710 46 324 1.0 3.0 0.00 0.11 0.06 74 1009.2
20260506012711 47 112 2.0 5.0 0.00 0.11 0.06 74 1008.9
20260506011710 47 103 4.0 6.0 0.00 0.12 0.06 75 1008.9
20260506010710 46 72 2.0 4.0 0.00 0.12 0.06 75 1009.2
20260506005731 46 0.0 0.0 0.00 0.12 0.06 75 1008.9
20260506004731 46 126 3.0 7.0 0.00 0.12 0.06 76 1008.9
20260506003711 46 121 2.0 4.0 0.00 0.13 0.06 76 1009.2
20260506002710 46 112 0.0 1.0 0.00 0.14 0.06 75 1008.9
20260506001710 47 126 4.0 8.0 0.00 0.14 0.06 75 1008.9
20260506000710 47 7 3.0 4.0 0.00 0.14 0.06 76 1008.9
20260505235710 46 112 1.0 3.0 0.00 0.14 0.06 77 1008.9
20260505234710 46 73 2.0 3.0 0.00 0.15 0.06 78 1008.5
20260505233710 46 121 4.0 5.0 0.00 0.15 0.06 78 1008.5
20260505232710 46 112 1.0 2.0 0.00 0.16 0.06 78 1008.5
20260505231710 46 183 3.0 5.0 0.00 0.16 0.06 78 1008.5
20260505230710 46 162 1.0 4.0 0.00 0.16 0.06 79 1008.5
20260505225711 46 180 2.0 4.0 0.00 0.18 0.06 80 1008.5
20260505224730 45 112 1.0 2.0 0.00 0.18 0.06 80 1008.5
20260505223710 45 95 3.0 4.0 0.00 0.18 0.06 80 1008.2
20260505222711 45 98 2.0 3.0 0.00 0.18 0.06 81 1008.5
20260505221710 45 202 1.0 3.0 0.00 0.18 0.06 81 1008.2
20260505220710 46 125 3.0 5.0 0.00 0.18 0.06 82 1008.5
20260505215710 46 183 1.0 3.0 0.00 0.18 0.06 81 1008.2
20260505214710 46 126 0.0 2.0 0.00 0.18 0.06 81 1008.2
20260505213710 46 105 3.0 6.0 0.00 0.18 0.06 80 1007.8
20260505212711 46 116 3.0 5.0 0.00 0.18 0.06 80 1007.8
20260505211710 46 120 1.0 3.0 0.00 0.18 0.06 81 1007.5
20260505210710 45 202 1.0 2.0 0.00 0.18 0.06 83 1007.5
20260505205731 45 90 0.0 3.0 0.00 0.18 0.06 84 1007.5
20260505204711 44 0.0 0.0 0.00 0.18 0.06 83 1007.5
20260505203711 44 120 2.0 4.0 0.00 0.18 0.06 83 1007.2
20260505202730 44 44 3.0 4.0 0.00 0.18 0.06 84 1007.5
20260505201710 44 112 1.0 2.0 0.01 0.18 0.06 84 1007.5
20260505200710 44 97 0.0 3.0 0.01 0.18 0.06 85 1007.2
20260505195710 44 90 0.0 2.0 0.01 0.18 0.06 84 1007.2
20260505194711 44 112 4.0 5.0 0.01 0.18 0.06 85 1007.2
20260505193731 43 112 3.0 3.0 0.01 0.18 0.06 86 1007.2
20260505192711 43 45 0.0 3.0 0.01 0.18 0.06 85 1007.2
20260505191710 43 112 1.0 2.0 0.00 0.17 0.05 86 1007.2
20260505190730 43 20 4.0 6.0 0.00 0.17 0.05 86 1006.8
20260505185711 43 38 1.0 3.0 0.00 0.17 0.05 88 1007.1
20260505184710 43 0.0 0.0 0.01 0.17 0.05 87 1006.8
20260505183710 43 0.0 0.0 0.01 0.17 0.05 87 1006.8
20260505182710 42 45 2.0 3.0 0.01 0.17 0.05 89 1006.8
20260505181710 42 71 1.0 1.0 0.01 0.17 0.05 89 1006.8
20260505180730 42 0.0 0.0 0.01 0.17 0.05 89 1006.5
20260505175710 42 0.0 1.0 0.01 0.17 0.05 89 1006.5
20260505174710 41 0.0 0.0 0.00 0.16 0.04 88 1006.8
20260505173710 41 0.0 0.0 0.00 0.16 0.04 87 1006.5
20260505172710 41 0.0 0.0 0.00 0.16 0.04 88 1006.1
20260505171710 41 360 1.0 3.0 0.00 0.16 0.04 88 1006.1
20260505170710 40 281 1.0 4.0 0.00 0.17 0.04 89 1006.1
20260505165731 40 0.0 0.0 0.00 0.17 0.04 88 1005.8
20260505164710 40 202 0.0 2.0 0.00 0.18 0.04 88 1005.8
20260505163710 40 360 1.0 2.0 0.00 0.18 0.04 88 1005.8
20260505162751 40 225 1.0 4.0 0.00 0.18 0.04 87 1005.8
20260505161710 41 0.0 0.0 0.00 0.18 0.04 86 1005.8
20260505160731 41 315 6.0 10.0 0.00 0.20 0.04 86 1005.5
20260505152710 40 315 5.0 7.0 0.00 0.20 0.04 88 1005.5
20260505151710 40 340 4.0 5.0 0.00 0.21 0.04 88 1005.5
20260505150710 40 320 7.0 9.0 0.00 0.22 0.04 88 1005.4
20260505124710 40 315 4.0 5.0 0.02 0.26 0.04 88 1004.4
20260505123710 40 313 3.0 4.0 0.02 0.26 0.04 89 1004.4
20260505122710 40 342 3.0 4.0 0.02 0.26 0.04 89 1004.4
20260505121711 40 315 7.0 10.0 0.02 0.26 0.04 89 1004.4
20260505120711 40 349 7.0 11.0 0.01 0.26 0.03 90 1004.2
20260505115731 39 352 6.0 7.0 0.01 0.27 0.03 91 1004.4